Terminal Aerodrome Forecast
Issued by NWS State College, PA

Home | Current Version | Previous Version | Text Only | Print | Product List | Glossary On
Versions: 1 2 3 4 5 6 7 8 9 10 11 12 13 14 15 16 17 18 19 20 21 22 23 24 25 26 27 28 29 30 31 32 33 34 35 36 37 38 39 40 41 42 43 44 45 46 47 48 49 50
000
FTUS41 KCTP 010539
TAFMDT
TAF
KMDT 010539Z 0106/0206 VRB03KT P6SM SKC
     FM010800 12004KT P6SM BKN120
     FM011100 12004KT P6SM OVC040
     FM011400 12004KT 5SM -SN BR OVC015
     FM011600 14002KT 1/2SM SN FG OVC008
     FM012100 15004KT 3/4SM -FZRASN BR OVC008=

USA.gov is the U.S. government's official web portal to all federal, state and local government web resources and services.